Location: Mesa Vista Observatory
(35.5777°N, 105.6987°W)
Time: 13:00:59
(UTC-06:00)

Hubble Space Telescope - Pass Details

Date: 26 June 2019
Orbit: 536 x 540 km, 28.5° (Epoch: 20 July)

Event Time Altitude Azimuth Distance (km) Brightness Sun altitude
Rises 21:24:07 0° 235° (SW) 2,669 4.5 -11.2°
Reaches altitude 10° 21:26:42 10° 221° (SW) 1,779 3.4 -11.6°
Maximum altitude 21:29:58 23° 168° (SSE) 1,165 2.0 -12.1°
Enters shadow 21:31:26 19° 138° (SE) 1,312 2.1 -12.3°
